Hourly Data Report for December 09, 2012

BAGOTVILLE A
QUEBEC

48°20'00.000" N
71°00'00.000" W
159.10 m
7060400
71727
YBG

Download Data

Hourly Data (December 2012)
Hourly Data Report for December 9, 2012
TIME
LST
Temp Definition
°C
Dew Point Definition
°C
Rel Hum Definition
%
Precip. Amount Definition
mm

Wind Dir Definition
10's deg

Wind Spd Definition
km/h
Visibility Definition
km
Stn Press Definition
kPa
Hmdx Definition


Wind Chill Definition


Weather Definition


00:00 -1.0 -1.9 94   33 11 3.2 99.09   -5 Snow
01:00 -0.9 -1.5 96   29 9 4.0 99.16   -4 Snow
02:00 -0.6 -1.7 92   28 17 4.8 99.27   -6 Snow
03:00 -1.7 -2.7 93   27 24 4.0 99.42   -8 Snow
04:00 -2.2 -3.6 90   29 30 12.9 99.58   -9 Snow
05:00 -3.6 -5.2 89   28 37 9.7 99.77   -12 Snow
06:00 -5.5 -7.8 84   29 41 12.9 99.97   -15 Snow
07:00 -6.5 -9.0 82   28 30 16.1 100.15   -15 Snow
08:00 -7.6 -10.7 78   29 41 32.2 100.29   -18 Mainly Clear
09:00 -8.8 -11.4 81   29 37 16.1 100.47   -19 Snow Showers
10:00 -9.8 -13.5 74   29 33 12.9 100.61   -20 Mainly Clear
11:00 -9.8 -13.0 77   29 35 6.4 100.69   -20 Snow Showers,Blowing Snow
12:00 -9.7 -12.9 77   30 22 6.4 100.69   -18 Snow Showers
13:00 -10.0 -12.9 79   30 26 4.8 100.79   -19 Snow Showers
14:00 -9.8 -13.5 74   30 19 16.1 100.80   -17 Snow Showers
15:00 -10.4 -12.5 85   32 20 9.7 100.94   -18 Snow Showers
16:00 -10.6 -13.6 79   31 13 6.4 100.98   -17 Snow Showers
17:00 -10.9 -14.0 78   31 13 12.9 101.00   -17 Snow Showers
18:00 -11.1 -14.7 75   30 11 24.1 100.98   -17 Snow Showers
19:00 -12.0 -14.3 83   26 4 24.1 100.97   -15 Snow Showers
20:00 -12.8 -15.8 78   24 6 24.1 100.97   -17 Mostly Cloudy
21:00 -13.6 -16.7 77   18 6 24.1 100.91   -18 Mostly Cloudy
22:00 -13.1 -16.1 78   18 4 24.1 100.84   -16 Mostly Cloudy
23:00 -12.1 -14.9 80   8 4 24.1 100.75   -15 Mostly Cloudy

Notes on Data Quality.

Legend

  • E = Estimated
  • M = Missing
  • NA = Not Available*
  • [empty] = Indicates an unobserved value
Date modified: